SCP
0 0 0 0 0 0 0 0 0 0 0 -0 0 0 0 0 0 0 0 0 0 0 0 0 -0 -0 -0 -0 0 -0 -0 -0 -0 -0 -0 -0 -0 0 -0 0 0 -0 0 0 0 0 0
0 0 0 0 0 0 0 0 0 0 0 0 0 0 0 0 0 0 0 0 0 0 0 0 0 0 0 -0 0 -0 0 -0 -0 0 -0 -0 0 -0 0 -0 -0 -0 -0 -0 0 0 0
0 0 0 0 0 0 0 0 0 0 0 0 0 0 0 0 0 0 0 0 0 0 0 0 0 0 0 0 0 0 0 0 -0 -0 -0 -0 0 -0 -0 -0 -0 -0 -0 0 -0 0 0
0 0 0 0 0 0 0 0 0 0 0 0 0 0 0 0 0 0 0 0 0 0 0 0 0 0 0 0 0 0 0 0 -0 -0 0 0 0 -0 -0 -0 -0 -0 0 -0 -0 -0 0
0 0 0 0 0 0 0 0 0 0 0 0 0 0 0 0 0 0 0 0 0 0 0 0 0 0 0 0 0 0 0 0 -0 -0 -0 0 0 -0 -0 -0 -0 -0 0 -0 -0 -0 0
0 0 0 0 0 0 0 0 0 0 0 0 0 0 0 0 0 0 0 0 0 0 0 0 0 0 0 0 0 0 0 0 0 0 -0 -0 0 -0 -0 -0 0 -0 0 -0 -0 -0 -0
-0 -0 0 0 0 0 0 0 0 0 0 -0 0 0 0 0 0 0 0 0 0 0 0 0 0 0 0 0 0 0 0 0 0 0 -0 -0 -0 0 -0 -0 0 0 0 0 0 0 -0
-0 -0 -0 -0 0 0 0 0 0 0 0 0 -0 -0 0 0 0 0 0 0 0 0 0 0 0 0 0 0 0 0 0 0 -0 -0 -0 -0 -0 0 -0 0 0 0 0 -0 0 0 0
-0 -0 -0 -0 -0 -0 0 0 0 0 0 0 0 -0 -0 0 0 0 0 0 0 0 0 0 0 0 0 0 0 0 0 0 0 -0 -0 0 0 -0 -0 0 -0 0 0 0 0 0 -0
-0 -0 -0 -0 -0 -0 -0 -0 0 0 0 0 0 0 -0 -0 0 0 0 0 0 0 0 0 0 0 0 0 0 0 0 0 -0 -0 0 -0 -0 -0 0 -0 -0 -0 0 0 0 -0 0
-0 -0 -0 -0 -0 -0 -0 -0 -0 -0 -0 0 0 0 0 0 0 0 0 0 0 0 0 0 0 0 0 0 0 0 0 0 -0 0 -0 -0 0 -0 -0 -0 -0 -0 0 0 0 0 -0
0 -0 -0 -0 -0 -0 -0 -0 -0 -0 -0 -0 -0 0 0 0 0 0 0 0 0 0 0 0 0 0 0 0 0 0 0 0 0 0 0 0 0 -0 0 -0 -0 -0 -0 0 0 -0 -0
0 -0 -0 -0 -0 -0 -0 -0 -0 -0 -0 -0 -0 0 0 0 0 0 0 0 0 0 0 0 0 0 0 0 0 0 0 0 0 0 0 0 0 0 0 -0 -0 -0 0 -0 -0 -0 0
-0 -0 -0 -0 -0 -0 -0 -0 -0 -0 -0 -0 -0 -0 0 0 0 0 0 0 0 0 0 0 0 0 0 0 0 0 0 0 0 0 0 0 0 0 0 -0 -0 0 -0 -0 0 -0 0
-0 -0 -0 -0 -0 -0 -0 -0 -0 -0 -0 -0 -0 0 0 0 0 0 0 0 0 0 0 0 0 0 0 0 0 0 0 0 0 -0 0 0 0 0 0 0 -0 -0 0 -0 0 -0 0
-0 -0 -0 -0 -0 -0 -0 -0 -0 -0 -0 -0 0 0 0 0 0 0 0 0 0 0 0 0 0 0 0 0 0 0 0 0 0 0 0 0 0 0 0 0 0 0 0 0 -0 -0 -0
-0 -0 -0 -0 -0 -0 -0 -0 -0 -0 -0 -0 0 0 0 0 0 0 0 0 0 0 0 0 0 0 0 0 0 0 0 0 0 0 0 0 0 0 0 0 0 0 -0 0 -0 -0 -0
0 -0 -0 -0 -0 -0 -0 -0 -0 -0 -0 0 -0 0 0 0 0 0 0 0 0 0 0 0 0 0 0 0 0 0 0 0 0 0 0 0 0 0 0 0 0 0 0 -0 -0 -0 -0
-0 -0 -0 -0 -0 -0 -0 -0 -0 -0 -0 0 0 0 0 -0 -0 0 0 0 0 0 0 0 0 0 0 0 0 0 0 0 0 0 0 0 0 0 0 0 0 0 -0 0 -0 -0 -0
-0 -0 -0 -0 -0 -0 -0 -0 -0 -0 -0 0 0 0 0 0 0 0 0 0 0 0 0 0 0 0 0 0 0 0 0 0 0 0 0 0 0 0 0 0 0 0 0 0 0 -0 0
-0 -0 -0 -0 -0 -0 -0 -0 -0 -0 -0 0 0 0 -0 0 0 -0 0 0 0 0 0 0 0 0 0 0 0 0 0 0 -0 0 0 0 0 0 0 0 0 0 0 0 -0 -0 -0
0 -0 -0 -0 -0 -0 -0 -0 -0 -0 -0 0 0 0 -0 -0 -0 -0 0 -0 0 0 0 0 0 0 0 0 0 0 0 0 0 0 0 -0 0 0 0 0 0 0 0 0 0 -0 0
0 0 0 0 -0 -0 -0 -0 -0 -0 -0 0 0 -0 0 -0 -0 0 0 -0 0 0 0 0 0 0 0 0 0 0 0 0 0 0 0 0 0 0 0 0 0 0 0 0 0 0 0
0 0 0 0 0 0 -0 -0 -0 -0 -0 0 0 0 0 -0 0 -0 -0 -0 0 0 0 0 0 0 0 0 0 0 0 0 0 0 0 0 0 0 0 0 0 0 0 0 0 0 0
0 0 0 0 0 0 -0 -0 -0 0 -0 0 0 0 0 0 0 -0 -0 -0 0 0 0 0 0 0 0 0 0 0 0 0 0 0 0 0 0 0 0 0 0 0 0 0 0 0 0
0 0 0 0 0 0 0 0 0 0 0 0 0 0 0 0 0 0 -0 0 -0 0 0 -0 0 -0 0 0 0 0 0 0 0 0 0 0 0 0 0 0 0 0 0 0 0 0 -0
0 0 0 0 0 0 0 0 0 0 0 0 0 0 0 0 0 0 0 0 0 0 0 0 0 0 0 0 0 0 0 0 0 -0 0 0 0 0 0 0 0 0 0 0 0 0 -0
0 0 0 0 0 0 0 0 0 0 0 0 0 0 0 0 -0 -0 -0 -0 0 0 0 0 0 0 0 0 0 0 0 0 0 0 0 0 0 0 0 0 0 0 0 0 0 0 0
0 0 0 0 0 0 0 0 0 0 0 0 0 0 0 0 0 0 -0 0 0 0 0 0 0 0 0 0 0 0 0 0 0 0 0 0 0 0 0 0 0 0 0 0 0 0 0
Wind_Speed_500mb
27 26 21 19 21 21 21 22 22 23 23 24 25 25 26 26 27 27 27 25 24 22 22 20 14 9 5 14 12 9 17 19 17 14 21 22 28 16 7 16 12 27 14 18 14 18 20
26 26 26 24 22 24 24 23 24 24 24 25 25 26 27 27 27 27 28 26 24 22 20 18 14 8 7 29 4 11 10 17 17 20 19 19 16 17 7 9 17 16 7 16 16 12 13
24 23 24 25 23 26 27 27 25 26 27 27 27 28 28 28 28 27 27 26 24 22 20 17 13 9 16 7 11 15 13 15 19 21 24 16 13 25 4 19 2 16 22 17 12 10 4
26 24 23 25 27 28 27 29 29 28 28 29 30 29 29 29 29 26 26 25 24 22 19 14 11 7 16 19 19 22 18 21 22 22 21 13 15 24 21 1 16 27 20 17 19 11 5
26 24 25 26 28 29 30 30 29 29 30 30 30 30 30 29 28 26 23 22 23 22 17 12 7 7 20 13 20 24 22 24 26 25 23 17 19 35 15 28 31 23 18 17 22 13 5
23 23 23 25 28 30 32 31 30 29 28 30 30 30 29 29 27 25 20 19 19 21 17 12 14 14 20 23 21 19 24 25 28 29 28 28 34 30 27 28 4 41 10 21 1 18 13
24 24 26 27 28 29 31 31 31 31 30 30 31 30 28 28 25 22 15 15 13 7 19 27 3 14 5 12 17 23 30 28 30 35 35 42 31 33 39 28 20 11 16 3 9 5 16
26 26 27 27 29 29 30 32 31 32 32 31 30 29 27 26 23 13 14 12 9 11 21 28 34 31 20 12 17 29 33 36 40 39 43 40 37 38 31 8 12 21 16 19 9 9 15
24 25 25 25 26 28 29 31 31 31 32 32 30 27 24 22 14 13 5 3 10 16 17 18 27 30 29 28 29 39 43 51 36 43 45 46 35 37 32 16 24 25 26 8 12 19 36
27 26 27 26 26 27 29 30 31 31 32 31 30 26 22 13 6 13 2 8 17 9 12 27 24 19 24 24 28 32 46 51 36 42 49 46 42 36 38 31 30 34 22 6 21 27 8
26 27 28 29 30 31 32 31 31 32 32 30 29 24 18 13 8 6 8 11 13 7 12 20 23 16 18 32 15 45 37 52 42 38 36 48 40 43 34 35 35 31 6 16 24 28 37
27 30 32 32 32 33 33 33 30 31 31 30 26 24 14 11 11 13 14 16 10 14 11 16 16 23 26 39 25 34 39 44 41 39 37 39 36 45 34 38 37 27 30 18 29 29 29
27 26 28 33 36 35 35 34 33 33 33 30 25 21 17 13 5 11 14 10 13 21 9 15 16 17 31 26 39 28 38 42 36 37 40 38 38 25 33 40 44 41 30 24 29 29 9
31 29 29 32 34 35 38 37 36 35 35 30 23 19 17 17 13 12 8 17 19 2 3 6 6 12 24 24 35 33 40 41 48 43 32 37 37 38 36 39 34 37 35 29 36 33 13
34 34 34 36 40 43 44 40 38 38 37 29 16 8 5 8 11 13 19 20 22 19 10 9 15 22 24 15 14 33 43 42 46 50 43 36 41 37 37 33 42 40 35 42 51 52 16
31 34 36 38 41 42 42 42 42 39 34 26 10 6 8 10 9 13 19 30 21 6 15 18 27 6 21 32 26 31 34 36 44 47 40 42 25 34 34 31 36 40 31 24 28 43 35
32 34 35 38 41 44 47 47 44 40 33 18 3 13 3 6 12 23 19 29 20 14 10 16 10 11 23 3 20 30 34 16 28 26 34 43 24 33 30 34 40 32 35 30 39 29 32
30 33 36 39 41 43 46 48 50 45 31 14 6 6 2 11 21 27 23 28 9 18 14 20 10 22 20 9 21 26 24 23 35 37 36 38 25 29 32 32 36 48 43 44 30 35 28
29 32 35 38 40 42 44 45 46 44 36 11 15 7 4 12 13 17 20 16 15 25 18 12 17 17 5 18 11 26 14 8 5 24 25 32 26 30 35 36 41 24 39 43 46 36 34
31 34 36 39 40 41 42 43 43 42 31 14 13 8 12 18 23 20 18 16 23 22 28 16 20 24 20 23 21 15 14 11 13 31 19 21 35 30 31 35 30 40 41 35 37 30 31
31 34 37 38 39 40 39 40 41 38 29 16 6 10 10 5 13 13 12 17 15 14 23 15 19 29 31 26 28 25 25 13 21 13 18 31 35 34 36 40 29 41 40 43 48 44 40
30 33 36 37 39 39 40 38 36 35 26 14 16 14 22 26 16 14 9 20 21 16 9 23 22 27 20 21 32 22 13 10 14 19 27 32 32 29 39 29 38 25 33 36 46 47 41
29 31 33 34 36 37 39 39 37 33 27 14 18 12 16 16 21 14 6 18 16 18 16 25 22 11 9 23 26 35 31 35 32 16 18 24 27 29 29 34 34 41 44 37 40 42 34
28 30 29 31 32 34 35 35 35 32 29 18 17 14 16 18 5 17 20 13 23 21 22 19 5 18 30 33 38 44 50 49 43 34 32 23 19 20 26 27 38 37 33 35 41 40 38
27 26 27 28 31 33 35 34 32 29 25 18 18 11 14 15 28 22 17 20 28 32 27 34 38 30 26 28 26 29 28 37 43 38 35 28 22 18 23 25 31 31 34 27 35 36 35
26 26 25 26 27 28 30 32 31 27 22 18 16 13 11 18 11 17 25 26 20 22 26 35 29 29 26 21 22 30 30 38 37 39 39 37 30 21 24 26 31 33 36 31 31 32 36
25 23 22 24 25 26 27 27 28 26 22 16 11 17 10 25 27 12 13 18 23 20 18 32 17 20 37 21 24 28 30 41 35 41 29 24 26 28 26 24 25 28 17 41 31 23 44
22 22 23 23 22 23 25 25 26 28 25 15 10 15 13 20 46 39 36 34 31 30 18 25 18 31 22 24 25 27 25 30 40 38 0 32 33 26 27 34 35 12 19 14 8 28 23
23 23 23 23 23 22 22 22 25 27 25 20 7 21 19 21 32 42 48 50 47 40 37 28 34 28 15 12 16 21 24 22 36 30 26 2 11 23 8 12 34 18 21 24 25 27 32
Wind_Direction_500mb
357 356 356 359 355 354 353 351 352 352 354 355 353 350 345 342 339 334 330 327 328 332 331 333 338 322 246 239 244 197 193 188 195 211 246 270 291 290 89 95 154 102 94 96 99 85 88
347 344 346 346 351 347 346 341 340 342 342 344 345 344 341 336 332 329 325 323 322 321 324 326 333 319 281 249 171 179 177 178 196 208 246 257 331 328 328 41 47 100 89 118 131 113 109
337 337 340 340 344 342 340 336 334 334 335 336 337 338 337 334 329 325 320 319 317 311 316 319 323 315 260 255 200 207 209 192 208 207 247 250 289 283 277 147 56 170 157 156 138 152 164
330 332 334 336 339 337 336 333 329 330 330 332 334 334 334 332 329 323 315 314 310 305 307 309 315 304 259 232 226 223 212 219 213 215 232 269 266 282 270 260 186 218 259 160 117 147 200
344 342 339 336 334 331 331 331 331 327 329 329 332 333 332 330 327 321 311 309 306 300 297 297 335 261 249 248 209 207 211 214 212 215 224 244 255 257 198 230 205 219 192 90 146 156 173
330 331 327 323 325 328 329 329 331 327 325 326 328 331 333 329 327 323 314 311 302 291 280 274 239 251 236 217 190 213 210 208 212 211 218 229 234 243 233 239 256 299 115 125 24 124 195
329 326 322 323 324 326 328 327 324 324 323 323 326 330 334 330 329 330 335 325 283 218 227 249 355 262 183 208 235 224 208 208 217 217 217 213 232 236 242 228 4 309 335 50 97 114 276
338 333 329 329 329 328 325 321 319 317 319 320 321 326 331 330 329 347 18 342 32 335 297 256 243 244 243 236 227 207 193 205 209 217 219 232 226 243 249 81 251 254 247 239 214 209 263
342 339 338 334 332 329 327 324 320 317 314 315 318 323 330 333 338 8 347 29 338 328 261 225 220 228 221 215 228 200 196 206 212 220 218 230 211 235 259 195 243 245 252 297 322 299 257
355 352 347 341 336 329 327 326 326 324 315 312 314 320 328 341 17 331 263 321 335 311 269 166 197 206 198 211 231 224 204 209 231 226 226 234 238 237 213 234 234 257 232 204 267 281 265
360 356 354 349 344 338 333 330 329 325 321 317 314 314 323 320 285 312 283 318 321 294 261 149 129 143 179 201 125 196 206 215 225 219 237 234 227 240 236 230 237 254 147 288 287 285 281
3 360 358 354 352 347 342 338 333 327 323 319 316 307 307 315 283 264 298 301 296 231 248 142 146 191 190 212 220 172 197 220 227 239 234 250 232 237 222 239 242 251 259 263 259 261 265
1 360 360 1 354 352 352 347 342 334 326 323 315 297 281 247 149 281 298 266 227 244 94 163 191 189 212 181 215 181 197 200 212 218 219 219 238 236 246 234 240 236 235 244 240 237 225
5 4 2 1 2 0 356 351 345 340 332 330 316 295 273 248 247 261 265 237 248 198 201 66 260 235 235 215 212 196 202 208 217 213 220 217 217 211 214 237 235 213 237 243 251 255 50
11 8 5 3 3 1 358 353 349 345 337 336 328 323 267 268 228 209 233 227 229 274 20 276 265 239 201 220 249 196 215 214 213 227 228 227 226 200 211 217 236 235 218 244 258 268 213
13 17 15 10 5 3 1 357 351 348 342 342 337 230 193 254 213 195 235 252 291 341 313 257 270 237 231 190 203 208 205 221 223 213 238 256 271 203 190 229 229 248 260 229 247 262 272
20 18 17 14 11 8 2 1 359 356 348 349 50 232 201 194 172 218 235 237 243 183 259 284 278 277 279 304 218 217 234 216 229 192 228 246 238 242 185 205 229 218 239 250 269 234 260
14 15 12 10 10 9 8 4 0 359 3 18 284 241 136 156 215 225 242 245 25 278 199 263 275 285 288 326 265 263 230 216 195 228 211 233 248 226 206 231 218 249 219 234 244 251 259
13 11 9 7 6 6 7 8 6 3 3 5 301 23 216 187 244 225 239 288 269 263 234 244 244 242 276 270 271 269 235 92 136 251 241 218 232 252 236 205 222 230 254 220 242 249 253
7 4 3 2 1 2 5 7 9 8 5 2 294 210 147 216 277 285 299 254 235 209 277 286 275 272 255 254 236 277 242 200 234 234 325 286 243 230 245 227 213 208 235 253 263 258 242
2 359 357 358 359 360 3 5 8 13 17 24 312 31 350 203 220 264 302 297 264 242 201 252 250 245 253 244 247 210 245 244 196 194 241 237 250 246 256 268 254 241 214 227 243 250 259
357 356 354 355 357 358 0 5 8 16 36 29 342 342 339 282 273 261 216 262 255 275 260 271 220 284 222 259 275 325 267 244 226 179 214 221 246 249 249 251 254 250 253 244 223 241 249
350 352 353 354 356 358 0 5 8 14 39 23 354 324 296 293 271 248 358 308 262 297 292 281 309 312 271 266 316 313 314 304 305 290 279 224 227 247 244 245 244 243 239 239 250 246 230
344 348 349 352 355 357 359 4 9 14 21 31 350 334 296 294 286 298 330 307 305 300 300 311 303 272 273 318 303 274 255 252 251 253 251 248 259 258 248 241 243 250 244 223 249 244 241
339 344 346 350 352 355 356 360 6 11 18 48 354 359 322 295 328 294 295 293 286 275 252 253 259 271 287 288 274 254 253 244 223 233 240 231 248 246 253 239 255 242 247 244 225 234 242
334 340 344 344 344 347 351 355 360 7 14 46 339 348 308 303 68 334 306 300 289 286 278 251 254 256 274 273 262 244 244 238 221 219 225 229 209 254 260 276 251 243 245 208 232 251 245
330 333 334 334 336 340 343 348 351 360 11 17 332 348 313 290 281 315 294 329 318 299 281 289 305 286 247 252 254 247 234 256 244 228 201 202 244 217 228 250 260 277 298 231 202 246 221
322 324 327 328 332 333 334 337 342 348 358 16 318 336 343 286 283 282 274 274 270 252 270 306 315 228 258 257 253 258 249 240 246 249 53 234 202 225 235 246 250 143 328 258 240 248 266
316 319 321 321 325 326 325 329 335 340 347 3 339 312 310 274 268 285 275 263 251 255 280 277 284 305 319 292 259 275 283 277 287 262 226 39 244 243 299 210 340 330 279 298 24 350 345
Wind_Speed_850mb
27 26 21 19 21 21 21 22 22 23 23 24 25 25 26 26 27 27 27 25 24 22 22 20 14 9 5 14 12 9 17 19 17 14 21 22 28 16 7 16 12 27 14 18 14 18 20
26 26 26 24 22 24 24 23 24 24 24 25 25 26 27 27 27 27 28 26 24 22 20 18 14 8 7 29 4 11 10 17 17 20 19 19 16 17 7 9 17 16 7 16 16 12 13
24 23 24 25 23 26 27 27 25 26 27 27 27 28 28 28 28 27 27 26 24 22 20 17 13 9 16 7 11 15 13 15 19 21 24 16 13 25 4 19 2 16 22 17 12 10 4
26 24 23 25 27 28 27 29 29 28 28 29 30 29 29 29 29 26 26 25 24 22 19 14 11 7 16 19 19 22 18 21 22 22 21 13 15 24 21 1 16 27 20 17 19 11 5
26 24 25 26 28 29 30 30 29 29 30 30 30 30 30 29 28 26 23 22 23 22 17 12 7 7 20 13 20 24 22 24 26 25 23 17 19 35 15 28 31 23 18 17 22 13 5
23 23 23 25 28 30 32 31 30 29 28 30 30 30 29 29 27 25 20 19 19 21 17 12 14 14 20 23 21 19 24 25 28 29 28 28 34 30 27 28 4 41 10 21 1 18 13
24 24 26 27 28 29 31 31 31 31 30 30 31 30 28 28 25 22 15 15 13 7 19 27 3 14 5 12 17 23 30 28 30 35 35 42 31 33 39 28 20 11 16 3 9 5 16
26 26 27 27 29 29 30 32 31 32 32 31 30 29 27 26 23 13 14 12 9 11 21 28 34 31 20 12 17 29 33 36 40 39 43 40 37 38 31 8 12 21 16 19 9 9 15
24 25 25 25 26 28 29 31 31 31 32 32 30 27 24 22 14 13 5 3 10 16 17 18 27 30 29 28 29 39 43 51 36 43 45 46 35 37 32 16 24 25 26 8 12 19 36
27 26 27 26 26 27 29 30 31 31 32 31 30 26 22 13 6 13 2 8 17 9 12 27 24 19 24 24 28 32 46 51 36 42 49 46 42 36 38 31 30 34 22 6 21 27 8
26 27 28 29 30 31 32 31 31 32 32 30 29 24 18 13 8 6 8 11 13 7 12 20 23 16 18 32 15 45 37 52 42 38 36 48 40 43 34 35 35 31 6 16 24 28 37
27 30 32 32 32 33 33 33 30 31 31 30 26 24 14 11 11 13 14 16 10 14 11 16 16 23 26 39 25 34 39 44 41 39 37 39 36 45 34 38 37 27 30 18 29 29 29
27 26 28 33 36 35 35 34 33 33 33 30 25 21 17 13 5 11 14 10 13 21 9 15 16 17 31 26 39 28 38 42 36 37 40 38 38 25 33 40 44 41 30 24 29 29 9
31 29 29 32 34 35 38 37 36 35 35 30 23 19 17 17 13 12 8 17 19 2 3 6 6 12 24 24 35 33 40 41 48 43 32 37 37 38 36 39 34 37 35 29 36 33 13
34 34 34 36 40 43 44 40 38 38 37 29 16 8 5 8 11 13 19 20 22 19 10 9 15 22 24 15 14 33 43 42 46 50 43 36 41 37 37 33 42 40 35 42 51 52 16
31 34 36 38 41 42 42 42 42 39 34 26 10 6 8 10 9 13 19 30 21 6 15 18 27 6 21 32 26 31 34 36 44 47 40 42 25 34 34 31 36 40 31 24 28 43 35
32 34 35 38 41 44 47 47 44 40 33 18 3 13 3 6 12 23 19 29 20 14 10 16 10 11 23 3 20 30 34 16 28 26 34 43 24 33 30 34 40 32 35 30 39 29 32
30 33 36 39 41 43 46 48 50 45 31 14 6 6 2 11 21 27 23 28 9 18 14 20 10 22 20 9 21 26 24 23 35 37 36 38 25 29 32 32 36 48 43 44 30 35 28
29 32 35 38 40 42 44 45 46 44 36 11 15 7 4 12 13 17 20 16 15 25 18 12 17 17 5 18 11 26 14 8 5 24 25 32 26 30 35 36 41 24 39 43 46 36 34
31 34 36 39 40 41 42 43 43 42 31 14 13 8 12 18 23 20 18 16 23 22 28 16 20 24 20 23 21 15 14 11 13 31 19 21 35 30 31 35 30 40 41 35 37 30 31
31 34 37 38 39 40 39 40 41 38 29 16 6 10 10 5 13 13 12 17 15 14 23 15 19 29 31 26 28 25 25 13 21 13 18 31 35 34 36 40 29 41 40 43 48 44 40
30 33 36 37 39 39 40 38 36 35 26 14 16 14 22 26 16 14 9 20 21 16 9 23 22 27 20 21 32 22 13 10 14 19 27 32 32 29 39 29 38 25 33 36 46 47 41
29 31 33 34 36 37 39 39 37 33 27 14 18 12 16 16 21 14 6 18 16 18 16 25 22 11 9 23 26 35 31 35 32 16 18 24 27 29 29 34 34 41 44 37 40 42 34
28 30 29 31 32 34 35 35 35 32 29 18 17 14 16 18 5 17 20 13 23 21 22 19 5 18 30 33 38 44 50 49 43 34 32 23 19 20 26 27 38 37 33 35 41 40 38
27 26 27 28 31 33 35 34 32 29 25 18 18 11 14 15 28 22 17 20 28 32 27 34 38 30 26 28 26 29 28 37 43 38 35 28 22 18 23 25 31 31 34 27 35 36 35
26 26 25 26 27 28 30 32 31 27 22 18 16 13 11 18 11 17 25 26 20 22 26 35 29 29 26 21 22 30 30 38 37 39 39 37 30 21 24 26 31 33 36 31 31 32 36
25 23 22 24 25 26 27 27 28 26 22 16 11 17 10 25 27 12 13 18 23 20 18 32 17 20 37 21 24 28 30 41 35 41 29 24 26 28 26 24 25 28 17 41 31 23 44
22 22 23 23 22 23 25 25 26 28 25 15 10 15 13 20 46 39 36 34 31 30 18 25 18 31 22 24 25 27 25 30 40 38 0 32 33 26 27 34 35 12 19 14 8 28 23
23 23 23 23 23 22 22 22 25 27 25 20 7 21 19 21 32 42 48 50 47 40 37 28 34 28 15 12 16 21 24 22 36 30 26 2 11 23 8 12 34 18 21 24 25 27 32
Wind_Direction_850mb
357 356 356 359 355 354 353 351 352 352 354 355 353 350 345 342 339 334 330 327 328 332 331 333 338 322 246 239 244 197 193 188 195 211 246 270 291 290 89 95 154 102 94 96 99 85 88
347 344 346 346 351 347 346 341 340 342 342 344 345 344 341 336 332 329 325 323 322 321 324 326 333 319 281 249 171 179 177 178 196 208 246 257 331 328 328 41 47 100 89 118 131 113 109
337 337 340 340 344 342 340 336 334 334 335 336 337 338 337 334 329 325 320 319 317 311 316 319 323 315 260 255 200 207 209 192 208 207 247 250 289 283 277 147 56 170 157 156 138 152 164
330 332 334 336 339 337 336 333 329 330 330 332 334 334 334 332 329 323 315 314 310 305 307 309 315 304 259 232 226 223 212 219 213 215 232 269 266 282 270 260 186 218 259 160 117 147 200
344 342 339 336 334 331 331 331 331 327 329 329 332 333 332 330 327 321 311 309 306 300 297 297 335 261 249 248 209 207 211 214 212 215 224 244 255 257 198 230 205 219 192 90 146 156 173
330 331 327 323 325 328 329 329 331 327 325 326 328 331 333 329 327 323 314 311 302 291 280 274 239 251 236 217 190 213 210 208 212 211 218 229 234 243 233 239 256 299 115 125 24 124 195
329 326 322 323 324 326 328 327 324 324 323 323 326 330 334 330 329 330 335 325 283 218 227 249 355 262 183 208 235 224 208 208 217 217 217 213 232 236 242 228 4 309 335 50 97 114 276
338 333 329 329 329 328 325 321 319 317 319 320 321 326 331 330 329 347 18 342 32 335 297 256 243 244 243 236 227 207 193 205 209 217 219 232 226 243 249 81 251 254 247 239 214 209 263
342 339 338 334 332 329 327 324 320 317 314 315 318 323 330 333 338 8 347 29 338 328 261 225 220 228 221 215 228 200 196 206 212 220 218 230 211 235 259 195 243 245 252 297 322 299 257
355 352 347 341 336 329 327 326 326 324 315 312 314 320 328 341 17 331 263 321 335 311 269 166 197 206 198 211 231 224 204 209 231 226 226 234 238 237 213 234 234 257 232 204 267 281 265
360 356 354 349 344 338 333 330 329 325 321 317 314 314 323 320 285 312 283 318 321 294 261 149 129 143 179 201 125 196 206 215 225 219 237 234 227 240 236 230 237 254 147 288 287 285 281
3 360 358 354 352 347 342 338 333 327 323 319 316 307 307 315 283 264 298 301 296 231 248 142 146 191 190 212 220 172 197 220 227 239 234 250 232 237 222 239 242 251 259 263 259 261 265
1 360 360 1 354 352 352 347 342 334 326 323 315 297 281 247 149 281 298 266 227 244 94 163 191 189 212 181 215 181 197 200 212 218 219 219 238 236 246 234 240 236 235 244 240 237 225
5 4 2 1 2 0 356 351 345 340 332 330 316 295 273 248 247 261 265 237 248 198 201 66 260 235 235 215 212 196 202 208 217 213 220 217 217 211 214 237 235 213 237 243 251 255 50
11 8 5 3 3 1 358 353 349 345 337 336 328 323 267 268 228 209 233 227 229 274 20 276 265 239 201 220 249 196 215 214 213 227 228 227 226 200 211 217 236 235 218 244 258 268 213
13 17 15 10 5 3 1 357 351 348 342 342 337 230 193 254 213 195 235 252 291 341 313 257 270 237 231 190 203 208 205 221 223 213 238 256 271 203 190 229 229 248 260 229 247 262 272
20 18 17 14 11 8 2 1 359 356 348 349 50 232 201 194 172 218 235 237 243 183 259 284 278 277 279 304 218 217 234 216 229 192 228 246 238 242 185 205 229 218 239 250 269 234 260
14 15 12 10 10 9 8 4 0 359 3 18 284 241 136 156 215 225 242 245 25 278 199 263 275 285 288 326 265 263 230 216 195 228 211 233 248 226 206 231 218 249 219 234 244 251 259
13 11 9 7 6 6 7 8 6 3 3 5 301 23 216 187 244 225 239 288 269 263 234 244 244 242 276 270 271 269 235 92 136 251 241 218 232 252 236 205 222 230 254 220 242 249 253
7 4 3 2 1 2 5 7 9 8 5 2 294 210 147 216 277 285 299 254 235 209 277 286 275 272 255 254 236 277 242 200 234 234 325 286 243 230 245 227 213 208 235 253 263 258 242
2 359 357 358 359 360 3 5 8 13 17 24 312 31 350 203 220 264 302 297 264 242 201 252 250 245 253 244 247 210 245 244 196 194 241 237 250 246 256 268 254 241 214 227 243 250 259
357 356 354 355 357 358 0 5 8 16 36 29 342 342 339 282 273 261 216 262 255 275 260 271 220 284 222 259 275 325 267 244 226 179 214 221 246 249 249 251 254 250 253 244 223 241 249
350 352 353 354 356 358 0 5 8 14 39 23 354 324 296 293 271 248 358 308 262 297 292 281 309 312 271 266 316 313 314 304 305 290 279 224 227 247 244 245 244 243 239 239 250 246 230
344 348 349 352 355 357 359 4 9 14 21 31 350 334 296 294 286 298 330 307 305 300 300 311 303 272 273 318 303 274 255 252 251 253 251 248 259 258 248 241 243 250 244 223 249 244 241
339 344 346 350 352 355 356 360 6 11 18 48 354 359 322 295 328 294 295 293 286 275 252 253 259 271 287 288 274 254 253 244 223 233 240 231 248 246 253 239 255 242 247 244 225 234 242
334 340 344 344 344 347 351 355 360 7 14 46 339 348 308 303 68 334 306 300 289 286 278 251 254 256 274 273 262 244 244 238 221 219 225 229 209 254 260 276 251 243 245 208 232 251 245
330 333 334 334 336 340 343 348 351 360 11 17 332 348 313 290 281 315 294 329 318 299 281 289 305 286 247 252 254 247 234 256 244 228 201 202 244 217 228 250 260 277 298 231 202 246 221
322 324 327 328 332 333 334 337 342 348 358 16 318 336 343 286 283 282 274 274 270 252 270 306 315 228 258 257 253 258 249 240 246 249 53 234 202 225 235 246 250 143 328 258 240 248 266
316 319 321 321 325 326 325 329 335 340 347 3 339 312 310 274 268 285 275 263 251 255 280 277 284 305 319 292 259 275 283 277 287 262 226 39 244 243 299 210 340 330 279 298 24 350 345